• Em Portugal
  • Lista de países
  • Para 7 dias
  • Temperatura da água
  • Mapas de satélite
  • Mapa do tempo
  • Widgets de tempo
  • user-avatar
    Iniciar Sessão

    Previsão horária em Tuzla

    Hoje, 17 Julho, Terça-feira

    Tempo Temperatura Precipitação Vento Pressão Humidade
    00:00 +20°C° 0,3 mm 1 m/s 718 mmHg 87%
    01:00 +20°C° 0,3 mm 1 m/s 718 mmHg 88%
    02:00 +19°C° 0,7 mm 1 m/s 718 mmHg 90%
    03:00 +19°C° 0,7 mm 1 m/s 718 mmHg 92%
    04:00 +18°C° 0,7 mm 1 m/s 718 mmHg 95%
    05:00 +19°C° 0,7 mm 1 m/s 718 mmHg 94%
    06:00 +20°C° 0,7 mm 1 m/s 718 mmHg 94%
    07:00 +20°C° 0,7 mm 1 m/s 718 mmHg 93%
    08:00 +21°C° 0,8 mm 1 m/s 718 mmHg 91%
    09:00 +22°C° 0,8 mm 1 m/s 718 mmHg 88%
    10:00 +23°C° 0,8 mm 2 m/s 718 mmHg 85%
    11:00 +23°C° 0,6 mm 2 m/s 718 mmHg 82%
    12:00 +24°C° 0,6 mm 2 m/s 718 mmHg 80%
    13:00 +24°C° 0,6 mm 3 m/s 718 mmHg 77%
    14:00 +24°C° 0,4 mm 3 m/s 718 mmHg 74%
    15:00 +25°C° 0,4 mm 3 m/s 718 mmHg 72%
    16:00 +25°C° 0,4 mm 3 m/s 718 mmHg 70%
    17:00 +23°C° 0,3 mm 2 m/s 718 mmHg 76%
    18:00 +21°C° 0,3 mm 2 m/s 718 mmHg 82%
    19:00 +20°C° 0,3 mm 2 m/s 718 mmHg 87%
    20:00 +19°C° 0,1 mm 2 m/s 719 mmHg 88%
    21:00 +18°C° 0,1 mm 2 m/s 719 mmHg 89%
    22:00 +18°C° 0,1 mm 1 m/s 719 mmHg 90%
    23:00 +18°C° 0,1 mm 1 m/s 719 mmHg 91%

    Amanhã, 18 Julho, Quarta-feira

    Tempo Temperatura Precipitação Vento Pressão Humidade
    00:00 +18°C° 0,1 mm 1 m/s 719 mmHg 91%
    01:00 +16°C° 0,1 mm 1 m/s 720 mmHg 91%
    02:00 +16°C° 0 mm 1 m/s 720 mmHg 91%
    03:00 +16°C° 0 mm 1 m/s 720 mmHg 91%
    04:00 +16°C° 0 mm 1 m/s 720 mmHg 91%
    05:00 +17°C° 0 mm 2 m/s 720 mmHg 87%
    06:00 +19°C° 0 mm 2 m/s 720 mmHg 83%
    07:00 +20°C° 0 mm 2 m/s 720 mmHg 78%
    08:00 +22°C° 0 mm 3 m/s 720 mmHg 69%
    09:00 +23°C° 0 mm 4 m/s 720 mmHg 59%
    10:00 +26°C° 0 mm 5 m/s 721 mmHg 50%
    11:00 +27°C° 0,1 mm 5 m/s 720 mmHg 49%
    12:00 +27°C° 0,1 mm 5 m/s 720 mmHg 47%
    13:00 +28°C° 0,1 mm 5 m/s 720 mmHg 46%
    14:00 +27°C° 0 mm 5 m/s 720 mmHg 49%
    15:00 +27°C° 0 mm 4 m/s 720 mmHg 52%
    16:00 +26°C° 0 mm 4 m/s 720 mmHg 54%
    17:00 +25°C° 0 mm 3 m/s 720 mmHg 61%
    18:00 +23°C° 0 mm 2 m/s 720 mmHg 68%
    19:00 +22°C° 0 mm 1 m/s 720 mmHg 74%
    20:00 +21°C° 0 mm 1 m/s 720 mmHg 75%
    21:00 +20°C° 0 mm 1 m/s 720 mmHg 76%
    22:00 +19°C° 0 mm 1 m/s 720 mmHg 77%
    23:00 +19°C° 0 mm 1 m/s 720 mmHg 78%

    Depois de amanhã, 19 Julho, Quinta-feira

    Tempo Temperatura Precipitação Vento Pressão Humidade
    00:00 +18°C° 0 mm 2 m/s 720 mmHg 79%
    01:00 +17°C° 0 mm 2 m/s 720 mmHg 80%
    02:00 +17°C° 0 mm 2 m/s 720 mmHg 81%
    03:00 +17°C° 0 mm 2 m/s 720 mmHg 82%
    04:00 +16°C° 0 mm 2 m/s 720 mmHg 83%
    05:00 +18°C° 0 mm 2 m/s 720 mmHg 79%
    06:00 +20°C° 0 mm 2 m/s 721 mmHg 75%
    07:00 +21°C° 0 mm 3 m/s 721 mmHg 71%
    08:00 +22°C° 0 mm 3 m/s 721 mmHg 65%
    09:00 +25°C° 0 mm 4 m/s 721 mmHg 59%
    10:00 +26°C° 0 mm 4 m/s 721 mmHg 53%
    11:00 +27°C° 0 mm 4 m/s 721 mmHg 51%
    12:00 +28°C° 0 mm 4 m/s 721 mmHg 49%
    13:00 +28°C° 0 mm 4 m/s 721 mmHg 46%
    14:00 +28°C° 0 mm 4 m/s 721 mmHg 48%
    15:00 +28°C° 0 mm 4 m/s 721 mmHg 49%
    16:00 +28°C° 0 mm 4 m/s 721 mmHg 50%
    17:00 +26°C° 0 mm 3 m/s 721 mmHg 59%
    18:00 +25°C° 0 mm 2 m/s 721 mmHg 67%
    19:00 +23°C° 0 mm 1 m/s 721 mmHg 76%
    20:00 +22°C° 0 mm 1 m/s 721 mmHg 79%
    21:00 +21°C° 0 mm 1 m/s 721 mmHg 82%
    22:00 +19°C° 0 mm 1 m/s 721 mmHg 85%
    23:00 +19°C° 0 mm 1 m/s 721 mmHg 87%

    20 Julho, Sexta-feira

    Tempo Temperatura Precipitação Vento Pressão Humidade
    00:00 +19°C° 0 mm 1 m/s 721 mmHg 88%
    01:00 +18°C° 0 mm 1 m/s 721 mmHg 89%
    02:00 +18°C° 0 mm 1 m/s 721 mmHg 90%
    03:00 +18°C° 0 mm 1 m/s 721 mmHg 90%
    04:00 +16°C° 0 mm 1 m/s 721 mmHg 91%
    05:00 +19°C° 0 mm 1 m/s 721 mmHg 85%
    06:00 +21°C° 0 mm 1 m/s 722 mmHg 79%
    07:00 +23°C° 0 mm 1 m/s 722 mmHg 73%
    08:00 +25°C° 0 mm 1 m/s 722 mmHg 65%
    09:00 +26°C° 0 mm 1 m/s 722 mmHg 57%
    10:00 +28°C° 0 mm 2 m/s 722 mmHg 49%
    11:00 +29°C° 0 mm 2 m/s 722 mmHg 47%
    12:00 +30°C° 0 mm 2 m/s 722 mmHg 44%
    13:00 +30°C° 0 mm 2 m/s 722 mmHg 42%
    14:00 +30°C° 0 mm 2 m/s 722 mmHg 43%
    15:00 +30°C° 0 mm 2 m/s 721 mmHg 44%
    16:00 +30°C° 0 mm 1 m/s 721 mmHg 45%
    17:00 +28°C° 0 mm 1 m/s 721 mmHg 53%
    18:00 +26°C° 0 mm 1 m/s 721 mmHg 61%
    19:00 +24°C° 0 mm 1 m/s 720 mmHg 70%
    20:00 +23°C° 0 mm 1 m/s 720 mmHg 72%
    21:00 +22°C° 0 mm 1 m/s 720 mmHg 74%
    22:00 +21°C° 0 mm 1 m/s 720 mmHg 76%
    23:00 +21°C° 0 mm 1 m/s 720 mmHg 77%

    21 Julho, Sábado

    Tempo Temperatura Precipitação Vento Pressão Humidade
    00:00 +20°C° 0 mm 1 m/s 720 mmHg 78%
    01:00 +19°C° 0 mm 2 m/s 720 mmHg 79%
    02:00 +19°C° 0 mm 2 m/s 720 mmHg 79%
    03:00 +18°C° 0 mm 2 m/s 720 mmHg 79%
    04:00 +18°C° 0 mm 2 m/s 719 mmHg 80%
    05:00 +20°C° 0 mm 2 m/s 720 mmHg 75%
    06:00 +23°C° 0 mm 1 m/s 720 mmHg 70%
    07:00 +24°C° 0 mm 1 m/s 720 mmHg 65%
    08:00 +27°C° 0 mm 1 m/s 720 mmHg 57%
    09:00 +29°C° 0 mm 1 m/s 720 mmHg 48%
    10:00 +32°C° 0 mm 1 m/s 720 mmHg 40%
    11:00 +33°C° 0 mm 1 m/s 720 mmHg 38%
    12:00 +33°C° 0 mm 1 m/s 720 mmHg 35%
    13:00 +35°C° 0 mm 2 m/s 719 mmHg 33%
    14:00 +34°C° 0 mm 2 m/s 719 mmHg 37%
    15:00 +32°C° 0 mm 2 m/s 718 mmHg 42%
    16:00 +31°C° 0 mm 2 m/s 718 mmHg 46%
    17:00 +29°C° 0 mm 2 m/s 718 mmHg 54%
    18:00 +27°C° 0 mm 1 m/s 717 mmHg 61%
    19:00 +26°C° 0 mm 1 m/s 717 mmHg 68%
    20:00 +24°C° 0 mm 1 m/s 717 mmHg 70%
    21:00 +23°C° 0 mm 2 m/s 717 mmHg 72%
    22:00 +21°C° 0 mm 2 m/s 717 mmHg 74%
    23:00 +20°C° 0,4 mm 2 m/s 717 mmHg 78%

    22 Julho, Domingo

    Tempo Temperatura Precipitação Vento Pressão Humidade
    00:00 +19°C° 0,4 mm 2 m/s 717 mmHg 83%
    01:00 +19°C° 0,4 mm 1 m/s 717 mmHg 87%
    02:00 +19°C° 0,5 mm 1 m/s 717 mmHg 89%
    03:00 +19°C° 0,5 mm 1 m/s 717 mmHg 91%
    04:00 +19°C° 0,5 mm 1 m/s 717 mmHg 93%
    05:00 +19°C° 0,2 mm 1 m/s 717 mmHg 92%
    06:00 +19°C° 0,2 mm 2 m/s 717 mmHg 91%
    07:00 +19°C° 0,2 mm 2 m/s 717 mmHg 91%
    08:00 +20°C° 0,2 mm 2 m/s 718 mmHg 85%
    09:00 +21°C° 0,2 mm 2 m/s 718 mmHg 80%
    10:00 +23°C° 0,2 mm 2 m/s 718 mmHg 74%
    11:00 +23°C° 0,8 mm 2 m/s 718 mmHg 79%
    12:00 +21°C° 0,8 mm 3 m/s 718 mmHg 84%
    13:00 +20°C° 0,8 mm 3 m/s 717 mmHg 89%
    14:00 +20°C° 0,3 mm 3 m/s 717 mmHg 86%
    15:00 +20°C° 0,3 mm 2 m/s 717 mmHg 84%
    16:00 +20°C° 0,3 mm 2 m/s 717 mmHg 82%
    17:00 +20°C° 0,2 mm 2 m/s 717 mmHg 84%
    18:00 +19°C° 0,2 mm 2 m/s 717 mmHg 87%
    19:00 +19°C° 0,2 mm 1 m/s 717 mmHg 89%
    20:00 +19°C° 0,1 mm 1 m/s 717 mmHg 90%
    21:00 +18°C° 0,1 mm 1 m/s 718 mmHg 91%
    22:00 +16°C° 0,1 mm 1 m/s 718 mmHg 92%
    23:00 +16°C° 0,2 mm 2 m/s 718 mmHg 92%
    Mostrar mais